Sparta, TN

7:03 AM CST on February 10, 2016 (GMT -0600)
Upper Cumberland Regional

Weather History for KSRB - July, 2013

Change the Weather History Date:

Thursday, July 4, 2013

  Actual Average (KCSV) Record (KCSV)
Temperature  
Mean Temperature 68 °F 74 °F  
Max Temperature 71 °F 84 °F 95 °F (2012)
Min Temperature 64 °F 65 °F 50 °F (1961)
Degree Days  
Heating Degree Days 0    
Month to date heating degree days  
Since 1 June heating degree days  
Since 1 July heating degree days  
Cooling Degree Days 2    
Month to date cooling degree days  
Year to date cooling degree days  
Since 1 June cooling degree days  
Growing Degree Days 18 (Base 50)    
Moisture  
Dew Point 66 °F    
Average Humidity 96    
Maximum Humidity 100    
Minimum Humidity 88    
Precipitation  
Precipitation 0.00 in 0.16 in 1.95 in (2013)
Month to date precipitation 0.65  
Year to date precipitation 29.63  
Sea Level Pressure  
Sea Level Pressure 30.13 in    
Wind  
Wind Speed 3 mph (ESE)    
Max Wind Speed 10 mph    
Max Gust Speed -    
Visibility 7 miles    
Events      
T = Trace of Precipitation, MM = Missing Value Source: NWS Daily Summary

Daily Weather History Graph

Daily Weather History Graph

Search for Another Location

Airport or City:

Trip Planner

Search our weather history database for the weather conditions in past years. The results will help you decide how hot, cold, wet, or windy it might be!

Date:

Astronomy

Jul. 04, 2013 Rise Set
Actual Time 5:30 AM CDT 8:02 PM CDT
Civil Twilight 5:00 AM CDT 8:32 PM CDT
Nautical Twilight 4:23 AM CDT 9:09 PM CDT
Astronomical Twilight 3:41 AM CDT 9:50 PM CDT
Moon 2:44 AM CDT (7/4) 5:08 PM CDT (7/4)
Length of Visible Light 15h 32m
Length of Day
14h 32m
Waning Crescent, 11% of the Moon is Illuminated
Jul 4
Waning Crescent
Jul 8
New
Jul 15
First Quarter
Jul 22
Full
Jul 29
Last Quarter

Hourly Weather History & Observations

Time (CDT) Temp. Dew Point Humidity Pressure Visibility Wind Dir Wind Speed Gust Speed Precip Events Conditions
12:35 AM 68.0 °F 64.4 °F 88% 30.14 in 10.0 mi Calm Calm - N/A   Mostly Cloudy
12:55 AM 68.0 °F 64.4 °F 88% 30.14 in 10.0 mi South 4.6 mph - N/A   Mostly Cloudy
1:15 AM 68.0 °F 64.4 °F 88% 30.14 in 10.0 mi Variable 3.5 mph - N/A   Unknown
1:35 AM 68.0 °F 64.4 °F 88% 30.14 in 10.0 mi SSE 4.6 mph - N/A   Overcast
1:55 AM 68.0 °F 64.4 °F 88% 30.13 in 10.0 mi SE 4.6 mph - N/A   Mostly Cloudy
2:15 AM 68.0 °F 64.4 °F 88% 30.13 in 10.0 mi Calm Calm - N/A   Unknown
2:35 AM 68.0 °F 64.4 °F 88% 30.13 in 10.0 mi Variable 4.6 mph - N/A   Overcast
2:55 AM 66.2 °F 64.4 °F 94% 30.13 in 3.0 mi SSE 4.6 mph - N/A   Mostly Cloudy
3:15 AM 66.2 °F 64.4 °F 94% 30.13 in 5.0 mi SE 5.8 mph - N/A   Unknown
3:35 AM 66.2 °F 64.4 °F 94% 30.13 in 6.0 mi ESE 4.6 mph - N/A   Mostly Cloudy
3:55 AM 66.2 °F 66.2 °F 100% 30.12 in 9.0 mi ESE 4.6 mph - N/A   Mostly Cloudy
4:15 AM 66.2 °F 66.2 °F 100% 30.12 in 10.0 mi Calm Calm - N/A   Mostly Cloudy
4:35 AM 66.2 °F 66.2 °F 100% 30.12 in 10.0 mi Calm Calm - N/A   Overcast
4:55 AM 68.0 °F 66.2 °F 94% 30.12 in 10.0 mi Calm Calm - N/A   Overcast
5:15 AM 66.2 °F 66.2 °F 100% 30.12 in 10.0 mi ESE 3.5 mph - N/A   Overcast
5:35 AM 66.2 °F 64.4 °F 94% 30.12 in 8.0 mi Calm Calm - N/A   Mostly Cloudy
5:55 AM 66.2 °F 66.2 °F 100% 30.12 in 10.0 mi ESE 3.5 mph - N/A   Mostly Cloudy
6:15 AM 66.2 °F 66.2 °F 100% 30.13 in 10.0 mi Calm Calm - N/A   Overcast
6:35 AM 68.0 °F 66.2 °F 94% 30.13 in 10.0 mi Calm Calm - N/A   Overcast
6:55 AM 66.2 °F 66.2 °F 100% 30.13 in 3.0 mi SE 4.6 mph - N/A   Mostly Cloudy
7:15 AM 66.2 °F 66.2 °F 100% 30.14 in 3.0 mi SE 3.5 mph - N/A   Overcast
7:35 AM 66.2 °F 66.2 °F 100% 30.14 in 2.0 mi SE 5.8 mph - N/A   Overcast
7:55 AM 66.2 °F 66.2 °F 100% 30.14 in 2.5 mi SE 5.8 mph - N/A   Mostly Cloudy
8:15 AM 66.2 °F 66.2 °F 100% 30.14 in 1.0 mi ESE 4.6 mph - N/A   Overcast
8:35 AM 66.2 °F 66.2 °F 100% 30.14 in 10.0 mi Calm Calm - N/A   Overcast
8:55 AM 68.0 °F 66.2 °F 94% 30.14 in 10.0 mi Calm Calm - N/A   Overcast
9:15 AM 68.0 °F 66.2 °F 94% 30.14 in 5.0 mi ESE 4.6 mph - N/A   Overcast
9:35 AM 68.0 °F 66.2 °F 94% 30.14 in 2.5 mi SSE 3.5 mph - N/A   Mostly Cloudy
9:55 AM 68.0 °F 66.2 °F 94% 30.14 in 2.5 mi Calm Calm - N/A   Overcast
10:15 AM 68.0 °F 66.2 °F 94% 30.14 in 5.0 mi East 3.5 mph - N/A   Mostly Cloudy
10:35 AM 68.0 °F 66.2 °F 94% 30.14 in 4.0 mi Calm Calm - N/A   Overcast
10:55 AM 69.8 °F 68.0 °F 94% 30.14 in 10.0 mi Calm Calm - N/A   Overcast
11:15 AM 69.8 °F 68.0 °F 94% 30.13 in 10.0 mi ESE 3.5 mph - N/A   Overcast
11:35 AM 71.6 °F 69.8 °F 94% 30.14 in 10.0 mi ESE 4.6 mph - N/A   Mostly Cloudy
11:55 AM 69.8 °F 69.8 °F 100% 30.14 in 9.0 mi Calm Calm - N/A   Mostly Cloudy
12:15 PM 71.6 °F 69.8 °F 94% 30.15 in 2.0 mi Calm Calm - N/A   Overcast
12:35 PM 71.6 °F 69.8 °F 94% 30.15 in 10.0 mi Calm Calm - N/A   Overcast
12:55 PM 71.6 °F 69.8 °F 94% 30.15 in 8.0 mi SE 4.6 mph - N/A   Overcast
1:15 PM 71.6 °F 69.8 °F 94% 30.14 in 10.0 mi Calm Calm - N/A   Mostly Cloudy
1:35 PM 71.6 °F 69.8 °F 94% 30.14 in 2.0 mi NNE 8.1 mph - N/A   Overcast
1:55 PM 66.2 °F 66.2 °F 100% 30.13 in 7.0 mi NNE 9.2 mph - N/A   Overcast
2:15 PM 66.2 °F 64.4 °F 94% 30.13 in 2.5 mi NE 5.8 mph - N/A   Overcast
2:35 PM 66.2 °F 64.4 °F 94% 30.12 in 1.8 mi NNE 6.9 mph - N/A   Overcast
2:55 PM 64.4 °F 64.4 °F 100% 30.11 in 1.2 mi NE 9.2 mph - N/A   Overcast
3:15 PM 64.4 °F 64.4 °F 100% 30.10 in 2.0 mi Variable 5.8 mph - N/A   Overcast
3:35 PM 64.4 °F 64.4 °F 100% 30.11 in 5.0 mi Variable 4.6 mph - N/A   Overcast
3:55 PM 64.4 °F 62.6 °F 94% 30.10 in 0.5 mi NNW 10.4 mph - N/A   Overcast
4:15 PM 64.4 °F 62.6 °F 94% 30.12 in 1.0 mi NE 4.6 mph - N/A   Overcast
4:35 PM 64.4 °F 64.4 °F 100% 30.13 in 0.5 mi North 8.1 mph - N/A   Overcast
4:55 PM 64.4 °F 64.4 °F 100% 30.12 in 9.0 mi NNE 6.9 mph - N/A   Overcast
5:15 PM 64.4 °F 64.4 °F 100% 30.14 in 10.0 mi Calm Calm - N/A   Overcast
5:35 PM 64.4 °F 64.4 °F 100% 30.12 in 10.0 mi NE 5.8 mph - N/A   Overcast
5:55 PM 64.4 °F 64.4 °F 100% 30.13 in 0.8 mi ENE 6.9 mph - N/A   Overcast
6:15 PM 64.4 °F 64.4 °F 100% 30.11 in 9.0 mi NE 8.1 mph - N/A   Mostly Cloudy
6:35 PM 64.4 °F 64.4 °F 100% 30.12 in 10.0 mi Variable 4.6 mph - N/A   Partly Cloudy
6:55 PM 64.4 °F 64.4 °F 100% 30.12 in 10.0 mi NE 5.8 mph - N/A   Scattered Clouds
7:15 PM 64.4 °F 64.4 °F 100% 30.12 in 6.0 mi Variable 3.5 mph - N/A   Unknown
7:35 PM 64.4 °F 64.4 °F 100% 30.11 in 5.0 mi NNE 5.8 mph - N/A   Scattered Clouds
7:55 PM 64.4 °F 64.4 °F 100% 30.11 in 10.0 mi NE 4.6 mph - N/A   Mostly Cloudy
8:15 PM 64.4 °F 64.4 °F 100% 30.11 in 8.0 mi Calm Calm - N/A   Scattered Clouds
8:35 PM 64.4 °F 64.4 °F 100% 30.11 in 3.0 mi ENE 4.6 mph - N/A   Mostly Cloudy
8:55 PM 66.2 °F 66.2 °F 100% 30.12 in 3.0 mi East 3.5 mph - N/A   Overcast
9:15 PM 66.2 °F 66.2 °F 100% 30.12 in 5.0 mi ESE 4.6 mph - N/A   Mostly Cloudy
9:35 PM 68.0 °F 66.2 °F 94% 30.12 in 8.0 mi SE 5.8 mph - N/A   Overcast
9:55 PM 68.0 °F 66.2 °F 94% 30.11 in 7.0 mi SSE 3.5 mph - N/A   Overcast
10:15 PM 66.2 °F 66.2 °F 100% 30.10 in 10.0 mi Calm Calm - N/A   Mostly Cloudy
10:35 PM 66.2 °F 66.2 °F 100% 30.10 in 10.0 mi SE 3.5 mph - N/A   Mostly Cloudy
10:55 PM 68.0 °F 66.2 °F 94% 30.11 in 9.0 mi SSE 4.6 mph - N/A   Mostly Cloudy
11:15 PM 68.0 °F 66.2 °F 94% 30.10 in 10.0 mi SE 5.8 mph - N/A   Mostly Cloudy
11:35 PM 68.0 °F 66.2 °F 94% 30.10 in 10.0 mi SSE 4.6 mph - N/A   Overcast
11:55 PM 68.0 °F 66.2 °F 94% 30.10 in 9.0 mi South 5.8 mph - N/A   Overcast